Flag for Germany Weather past 2 weeks in Kehl, Baden-Württemberg, Germany

Now
72 °F

Clear.


Feels Like: 76 °F
Forecast: 46 / 66 °F
Wind: 7 mph from Northeast

Location: Strasbourg Airport

Current Time: Apr 21, 2015 at 3:56:42 PM

Latest Report: Apr 21, 2015 at 3:30 PM


Visibility: N/A

Pressure: 30.33 "Hg

Humidity: 27%

Dew point: 36 °F

Location of KehlLocation

Historic Weather in Kehl — Graph

°F

Kehl temperature yesterday

Maximum temperature yesterday: 68 °F (at 2:30 PM)
Minimum temperature yesterday: 39 °F (at 7:00 AM)
Average temperature yesterday: 55 °F

Past Weeks' High & Low Weather Summary

 TemperatureHumidityPressure
High81 °F (Apr 15, 3:00 PM)94% (Apr 17, 2:30 PM)30.63 "Hg (Apr 17, 2:30 PM)
Low30 °F (Apr 7, 5:30 AM)15% (Apr 15, 4:30 PM)29.89 "Hg (Apr 16, 5:30 PM)
Average55 °F57%30.25 "Hg
* Reported Apr 6 2:00 PM — Apr 21 2:30 PM, Kehl, Weather by CustomWeather, © 2015

Note: Actual official high and low records may vary slightly from our data, if they occured in-between our weather recording intervals... More about our weather records

Advertising

Kehl weather history for previous 24 hours

 ConditionsComfort  
Time TempWeatherWind HumidityBarometerVisibility
2:30 PM
Tue, Apr 21
70 °FClear.9 mph31%30.36 "HgN/A
2:00 PM70 °FClear.7 mph29%30.36 "HgN/A
1:30 PM68 °FClear.8 mph33%30.36 "HgN/A
1:00 PM70 °FClear.9 mph31%30.39 "HgN/A
12:30 PM68 °FClear.9 mph35%30.39 "HgN/A
12:00 PM66 °FClear.9 mph35%30.39 "HgN/A
11:30 AM66 °FClear.9 mph37%30.39 "HgN/A
11:00 AM63 °FClear.10 mph42%30.39 "HgN/A
10:30 AM61 °FClear.10 mph48%30.39 "HgN/A
10:00 AM59 °FClear.9 mph51%30.39 "HgN/A
9:30 AM57 °FClear.7 mph55%30.39 "HgN/A
9:00 AM55 °FClear.6 mph59%30.39 "HgN/A
8:30 AM52 °FClear.5 mph62%30.39 "HgN/A
8:00 AM50 °FClear.3 mph71%30.36 "HgN/A
7:30 AM46 °FClear.3 mph76%30.36 "HgN/A
7:00 AM43 °FClear.3 mph81%30.36 "HgN/A
6:30 AM43 °FClear.3 mph81%30.33 "HgN/A
6:00 AM43 °FClear.3 mph81%30.33 "HgN/A
5:30 AM43 °FClear.3 mph81%30.33 "HgN/A
5:00 AM43 °FClear.6 mph81%30.33 "HgN/A
4:30 AM43 °FClear.3 mph76%30.33 "HgN/A
4:00 AM45 °FClear.5 mph76%30.33 "HgN/A
3:30 AM45 °FClear.3 mph76%30.30 "HgN/A
3:00 AM43 °FClear.6 mph81%30.30 "HgN/A
2:30 AM45 °FClear.3 mph81%30.30 "HgN/A
2:00 AM45 °FClear.3 mph81%30.30 "HgN/A
1:30 AM46 °FClear.3 mph71%30.30 "HgN/A
1:00 AM48 °FClear.1 mph66%30.30 "HgN/A
12:30 AM50 °FClear.2 mph62%30.30 "HgN/A
12:00 AM50 °FClear.3 mph62%30.30 "HgN/A
11:00 PM
Mon, Apr 20
52 °FClear.3 mph54%30.30 "HgN/A
10:30 PM55 °FClear.5 mph47%30.30 "HgN/A
10:00 PM57 °FClear.6 mph44%30.27 "HgN/A
9:30 PM59 °FClear.7 mph42%30.27 "HgN/A
9:00 PM61 °FClear.7 mph36%30.27 "HgN/A
8:30 PM63 °FClear.9 mph34%30.24 "HgN/A
8:00 PM64 °FClear.10 mph32%30.24 "HgN/A
7:30 PM66 °FClear.10 mph30%30.24 "HgN/A
7:00 PM66 °FClear.12 mph30%30.21 "HgN/A
6:30 PM68 °FPassing clouds.14 mph26%30.21 "HgN/A
6:00 PM68 °FPassing clouds.16 mph26%30.21 "HgN/A
5:30 PM68 °FClear.16 mph23%30.21 "HgN/A
5:00 PM68 °FClear.14 mph23%30.24 "HgN/A
4:30 PM68 °FClear.14 mph23%30.24 "HgN/A
4:00 PM68 °FClear.13 mph23%30.24 "HgN/A
3:30 PM68 °FClear.12 mph24%30.24 "HgN/A
3:00 PM68 °FClear.13 mph24%30.24 "HgN/A
Weather by CustomWeather, © 2015

See weather overviewHow to use our weather pages